Location: Burbank
(38.7788°N, 114.0429°W)
Time: 17:28:26
(UTC+00:00)

Injun/Solrad 3 - Pass Details

Date: 15 May 2026
Orbit: 867 x 989 km, 66.8° (Epoch: 9 June)

Event Time Altitude Azimuth Distance (km) Brightness Sun altitude
Rises 07:15:55 0° 338° (NNW) 3,681 12.0 -32.2°
Reaches altitude 10° 07:18:44 10° 347° (NNW) 2,741 11.2 -32.2°
Maximum altitude 07:24:36 36° 52° (NE) 1,521 9.2 -32.3°
Enters shadow 07:25:58 33° 78° (ENE) 1,613 9.1 -32.3°
Drops below altitude 10° 07:30:27 10° 118° (ESE) 2,740 - -32.3°
Sets 07:33:14 0° 127° (SE) 3,679 - -32.3°
